カタログに戻る

SIGI

運用中科学SSO
NORAD 62632·PAYLOAD·🇩🇪 Germany

打ち上げ Jan 14, 2025 から Vandenberg Space Force Base

Loading…

次のパス (今後24時間)

TLE

最新Source: Space-Track

元期: Sep 14, 2026, 13:27 UTC

1 62632U 25009Z   26257.56069471  .00004617  00000-0  18535-3 0  9998
2 62632  97.3947 336.7072 0003373  25.4438 334.6965 15.25454788 92422

AllMySatでSIGIをリアルタイム追跡

Download on the App Store